| time (UTC) | temp F | wind direction | speed MPH | gust MPH | rain 1hr in | rain 24hr in | rain mn in | humidity % | barometer mb |
| 20260506145020 | 52 | 44 | 8.0 | 8.0 | 0.00 | 0.00 | 0.00 | 5 | 1008.5 |
| 20260506144020 | 53 | 342 | 5.0 | 6.0 | 0.00 | 0.00 | 0.00 | 5 | 1008.2 |
| 20260506143018 | 52 | 328 | 1.0 | 6.0 | 0.00 | 0.00 | 0.00 | 4 | 1008.2 |
| 20260506142018 | 52 | 0 | 7.0 | 10.0 | 0.00 | 0.00 | 0.00 | 5 | 1008.3 |
| 20260506141019 | 51 | 355 | 11.0 | 12.0 | 0.00 | 0.00 | 0.00 | 5 | 1008.0 |
| 20260506140018 | 51 | 0 | 1.0 | 2.0 | 0.00 | 0.00 | 0.00 | 5 | 1008.0 |
| 20260506135020 | 50 | 320 | 7.0 | 7.0 | 0.00 | 0.00 | 0.00 | 5 | 1008.0 |
| 20260506134021 | 50 | 299 | 4.0 | 5.0 | 0.00 | 0.00 | 0.00 | 5 | 1007.9 |
| 20260506133019 | 49 | 30 | 3.0 | 5.0 | 0.00 | 0.00 | 0.00 | 6 | 1007.9 |
| 20260506132018 | 49 | 301 | 1.0 | 3.0 | 0.00 | 0.00 | 0.00 | 6 | 1007.7 |
| 20260506131019 | 48 | 305 | 1.0 | 2.0 | 0.00 | 0.00 | 0.00 | 6 | 1007.4 |
| 20260506130019 | 47 | 329 | 1.0 | 2.0 | 0.00 | 0.00 | 0.00 | 6 | 1007.4 |
| 20260506125018 | 47 | 333 | 3.0 | 4.0 | 0.00 | 0.00 | 0.00 | 6 | 1007.4 |
| 20260506124017 | 46 | 327 | 2.0 | 2.0 | 0.00 | 0.00 | 0.00 | 6 | 1007.1 |
| 20260506123019 | 46 | 13 | 1.0 | 2.0 | 0.00 | 0.00 | 0.00 | 6 | 1007.1 |
| 20260506122017 | 45 | 315 | 2.0 | 3.0 | 0.00 | 0.00 | 0.00 | 6 | 1007.0 |
| 20260506121018 | 45 | 314 | 1.0 | 2.0 | 0.00 | 0.00 | 0.00 | 6 | 1006.9 |
| 20260506120019 | 45 | 319 | 2.0 | 2.0 | 0.00 | 0.00 | 0.00 | 6 | 1006.9 |
| 20260506115018 | 45 | 300 | 2.0 | 2.0 | 0.00 | 0.00 | 0.00 | 6 | 1006.9 |
| 20260506114018 | 45 | 307 | 5.0 | 5.0 | 0.00 | 0.00 | 0.00 | 6 | 1006.6 |
| 20260506113020 | 45 | 309 | 3.0 | 3.0 | 0.00 | 0.00 | 0.00 | 6 | 1006.6 |
| 20260506112019 | 45 | 300 | 1.0 | 2.0 | 0.00 | 0.00 | 0.00 | 6 | 1006.4 |
| 20260506111019 | 45 | 313 | 3.0 | 5.0 | 0.00 | 0.00 | 0.00 | 6 | 1006.2 |
| 20260506110018 | 45 | 313 | 1.0 | 1.0 | 0.00 | 0.00 | 0.00 | 6 | 1006.2 |
| 20260506105019 | 46 | 292 | 2.0 | 3.0 | 0.00 | 0.00 | 0.00 | 6 | 1006.1 |
| 20260506104017 | 46 | 326 | 3.0 | 4.0 | 0.00 | 0.00 | 0.00 | 6 | 1005.7 |
| 20260506103018 | 46 | 334 | 2.0 | 3.0 | 0.00 | 0.00 | 0.00 | 6 | 1005.7 |
| 20260506102019 | 46 | 306 | 1.0 | 3.0 | 0.00 | 0.00 | 0.00 | 6 | 1005.7 |
| 20260506101019 | 46 | 318 | 2.0 | 2.0 | 0.00 | 0.00 | 0.00 | 6 | 1005.4 |
| 20260506100017 | 46 | 319 | 3.0 | 3.0 | 0.00 | 0.00 | 0.00 | 6 | 1005.4 |
| 20260506095019 | 46 | 0 | 0.0 | 0.0 | 0.00 | 0.00 | 0.00 | 6 | 1005.6 |
| 20260506094018 | 47 | 0 | 0.0 | 1.0 | 0.00 | 0.00 | 0.00 | 6 | 1005.1 |
| 20260506093019 | 47 | 319 | 1.0 | 2.0 | 0.00 | 0.00 | 0.00 | 6 | 1005.1 |
| 20260506092018 | 47 | 319 | 3.0 | 3.0 | 0.00 | 0.00 | 0.00 | 6 | 1005.4 |
| 20260506091019 | 47 | 319 | 2.0 | 2.0 | 0.00 | 0.00 | 0.00 | 5 | 1005.0 |
| 20260506090017 | 47 | 5 | 1.0 | 2.0 | 0.00 | 0.00 | 0.00 | 5 | 1005.0 |
| 20260506085019 | 47 | 355 | 4.0 | 5.0 | 0.00 | 0.00 | 0.00 | 5 | 1004.9 |
| 20260506084018 | 47 | 351 | 1.0 | 2.0 | 0.00 | 0.00 | 0.00 | 6 | 1005.1 |
| 20260506083018 | 47 | 340 | 1.0 | 3.0 | 0.00 | 0.00 | 0.00 | 5 | 1005.1 |
| 20260506082018 | 47 | 0 | 0.0 | 1.0 | 0.00 | 0.00 | 0.00 | 5 | 1005.0 |
| 20260506081018 | 47 | 302 | 1.0 | 2.0 | 0.00 | 0.00 | 0.00 | 6 | 1004.8 |
| 20260506073018 | 47 | 292 | 3.0 | 4.0 | 0.00 | 0.00 | 0.00 | 6 | 1004.9 |
| 20260506072018 | 47 | 291 | 1.0 | 1.0 | 0.00 | 0.00 | 0.00 | 6 | 1004.7 |
| 20260506071020 | 47 | 248 | 2.0 | 2.0 | 0.00 | 0.00 | 0.00 | 6 | 1004.9 |
| 20260506062018 | 48 | 252 | 2.0 | 2.0 | 0.00 | 0.00 | 0.00 | 6 | 1005.2 |
| 20260506061019 | 48 | 252 | 2.0 | 2.0 | 0.00 | 0.00 | 0.00 | 6 | 1005.5 |
| 20260506051019 | 48 | 247 | 1.0 | 2.0 | 0.00 | 0.00 | 0.00 | 6 | 1005.2 |
| 20260506045019 | 49 | 247 | 1.0 | 1.0 | 0.00 | 0.00 | 0.00 | 5 | 1005.2 |
| 20260506044019 | 49 | 0 | 0.0 | 0.0 | 0.00 | 0.00 | 0.00 | 5 | 1005.2 |
| 20260506043019 | 49 | 0 | 0.0 | 0.0 | 0.00 | 0.00 | 0.00 | 5 | 1005.2 |
| 20260506042019 | 49 | 0 | 0.0 | 0.0 | 0.00 | 0.00 | 0.00 | 5 | 1005.1 |
| 20260506041019 | 49 | 247 | 2.0 | 2.0 | 0.00 | 0.00 | 0.00 | 5 | 1004.9 |
| 20260506040019 | 49 | 247 | 3.0 | 3.0 | 0.00 | 0.00 | 0.00 | 5 | 1004.9 |
| 20260506035018 | 49 | 0 | 0.0 | 0.0 | 0.00 | 0.00 | 0.00 | 5 | 1004.9 |
| 20260506034018 | 50 | 247 | 2.0 | 2.0 | 0.00 | 0.00 | 0.00 | 5 | 1005.0 |
| 20260506033019 | 50 | 0 | 0.0 | 1.0 | 0.00 | 0.00 | 0.00 | 5 | 1005.0 |
| 20260506032020 | 50 | 0 | 0.0 | 0.0 | 0.00 | 0.00 | 0.00 | 5 | 1005.2 |
| 20260506031020 | 50 | 247 | 3.0 | 3.0 | 0.00 | 0.00 | 0.00 | 5 | 1005.1 |
| 20260506030019 | 50 | 0 | 0.0 | 1.0 | 0.00 | 0.00 | 0.00 | 5 | 1005.1 |
| 20260506025018 | 50 | 257 | 1.0 | 1.0 | 0.00 | 0.00 | 0.00 | 5 | 1005.1 |
| 20260506024018 | 50 | 267 | 4.0 | 4.0 | 0.00 | 0.00 | 0.00 | 5 | 1005.1 |
| 20260506023018 | 50 | 265 | 3.0 | 3.0 | 0.00 | 0.00 | 0.00 | 5 | 1005.1 |
| 20260506022018 | 51 | 265 | 1.0 | 3.0 | 0.00 | 0.00 | 0.00 | 5 | 1005.1 |
| 20260506021018 | 51 | 259 | 3.0 | 3.0 | 0.00 | 0.00 | 0.00 | 5 | 1005.1 |
| 20260506020018 | 51 | 270 | 4.0 | 4.0 | 0.00 | 0.00 | 0.00 | 5 | 1005.1 |
| 20260506015019 | 51 | 290 | 1.0 | 1.0 | 0.00 | 0.00 | 0.00 | 4 | 1004.6 |
| 20260506014018 | 51 | 290 | 2.0 | 3.0 | 0.00 | 0.00 | 0.00 | 4 | 1004.5 |
| 20260506013018 | 51 | 288 | 2.0 | 2.0 | 0.00 | 0.00 | 0.00 | 4 | 1004.5 |
| 20260506012018 | 51 | 271 | 2.0 | 2.0 | 0.00 | 0.00 | 0.00 | 5 | 1004.4 |
| 20260506011018 | 52 | 280 | 4.0 | 5.0 | 0.00 | 0.00 | 0.00 | 5 | 1004.3 |
| 20260506010017 | 52 | 254 | 3.0 | 6.0 | 0.00 | 0.00 | 0.00 | 5 | 1004.3 |
| 20260506005018 | 52 | 270 | 3.0 | 4.0 | 0.00 | 0.00 | 0.00 | 5 | 1004.4 |
| 20260506004018 | 52 | 267 | 2.0 | 3.0 | 0.00 | 0.00 | 0.00 | 5 | 1004.5 |
| 20260506003019 | 52 | 259 | 1.0 | 2.0 | 0.00 | 0.00 | 0.00 | 5 | 1004.5 |
| 20260506002018 | 52 | 262 | 2.0 | 3.0 | 0.00 | 0.07 | 0.00 | 5 | 1004.4 |
| 20260506001019 | 52 | 262 | 1.0 | 2.0 | 0.00 | 0.07 | 0.00 | 5 | 1004.2 |
| 20260506000018 | 53 | 260 | 3.0 | 3.0 | 0.00 | 0.07 | 0.00 | 5 | 1004.2 |
| 20260505235019 | 53 | 269 | 2.0 | 2.0 | 0.00 | 0.07 | 0.00 | 5 | 1003.9 |
| 20260505234018 | 53 | 296 | 1.0 | 2.0 | 0.00 | 0.07 | 0.00 | 5 | 1003.6 |
| 20260505233018 | 53 | 281 | 1.0 | 2.0 | 0.00 | 0.07 | 0.00 | 5 | 1003.6 |
| 20260505232018 | 53 | 302 | 2.0 | 3.0 | 0.00 | 0.07 | 0.00 | 5 | 1003.6 |
| 20260505231019 | 54 | 263 | 2.0 | 3.0 | 0.00 | 0.07 | 0.00 | 5 | 1003.6 |
| 20260505230019 | 54 | 310 | 3.0 | 3.0 | 0.00 | 0.07 | 0.00 | 5 | 1003.6 |
| 20260505225020 | 54 | 251 | 2.0 | 4.0 | 0.00 | 0.07 | 0.00 | 5 | 1003.7 |
| 20260505224018 | 54 | 282 | 3.0 | 3.0 | 0.00 | 0.07 | 0.00 | 5 | 1003.7 |
| 20260505223018 | 54 | 294 | 7.0 | 7.0 | 0.00 | 0.07 | 0.00 | 5 | 1003.7 |
| 20260505222018 | 54 | 312 | 4.0 | 5.0 | 0.00 | 0.07 | 0.00 | 5 | 1003.7 |
| 20260505221018 | 54 | 272 | 6.0 | 9.0 | 0.00 | 0.07 | 0.00 | 5 | 1003.5 |
| 20260505220018 | 54 | 279 | 3.0 | 4.0 | 0.00 | 0.07 | 0.00 | 6 | 1003.5 |
| 20260505215018 | 55 | 271 | 7.0 | 8.0 | 0.00 | 0.07 | 0.00 | 6 | 1003.7 |
| 20260505214018 | 54 | 265 | 5.0 | 5.0 | 0.00 | 0.07 | 0.00 | 6 | 1003.7 |
| 20260505213018 | 55 | 271 | 7.0 | 7.0 | 0.00 | 0.07 | 0.00 | 6 | 1003.7 |
| 20260505212017 | 54 | 261 | 7.0 | 7.0 | 0.00 | 0.07 | 0.00 | 6 | 1003.5 |
| 20260505211019 | 54 | 312 | 6.0 | 8.0 | 0.00 | 0.07 | 0.00 | 6 | 1003.7 |
| 20260505210019 | 55 | 315 | 4.0 | 5.0 | 0.00 | 0.07 | 0.00 | 6 | 1003.7 |
| 20260505205019 | 55 | 247 | 2.0 | 3.0 | 0.00 | 0.07 | 0.00 | 6 | 1003.7 |
| 20260505204023 | 55 | 254 | 6.0 | 7.0 | 0.00 | 0.07 | 0.00 | 6 | 1003.8 |
| 20260505203018 | 55 | 249 | 2.0 | 3.0 | 0.00 | 0.07 | 0.00 | 6 | 1003.8 |
| 20260505202018 | 55 | 246 | 8.0 | 9.0 | 0.00 | 0.07 | 0.00 | 6 | 1003.8 |
| 20260505201018 | 55 | 0 | 0.0 | 1.0 | 0.00 | 0.07 | 0.00 | 6 | 1003.8 |
| 20260505200020 | 54 | 231 | 2.0 | 3.0 | 0.00 | 0.07 | 0.00 | 6 | 1003.8 |
| 20260505195020 | 54 | 230 | 5.0 | 5.0 | 0.00 | 0.07 | 0.00 | 6 | 1003.8 |
| 20260505194021 | 54 | 238 | 3.0 | 6.0 | 0.00 | 0.07 | 0.00 | 6 | 1003.9 |
| 20260505193022 | 53 | 267 | 6.0 | 6.0 | 0.00 | 0.07 | 0.00 | 6 | 1003.9 |
| 20260505192019 | 53 | 232 | 5.0 | 5.0 | 0.00 | 0.07 | 0.00 | 6 | 1003.9 |
| 20260505191020 | 53 | 216 | 2.0 | 2.0 | 0.00 | 0.07 | 0.00 | 6 | 1004.2 |
| 20260505190018 | 53 | 245 | 1.0 | 1.0 | 0.00 | 0.07 | 0.00 | 7 | 1004.2 |
| 20260505185018 | 53 | 197 | 5.0 | 8.0 | 0.00 | 0.07 | 0.00 | 6 | 1004.2 |
| 20260505184018 | 53 | 221 | 5.0 | 8.0 | 0.00 | 0.07 | 0.00 | 7 | 1003.9 |
| 20260505183021 | 53 | 244 | 5.0 | 8.0 | 0.00 | 0.07 | 0.00 | 6 | 1003.9 |
| 20260505182018 | 53 | 214 | 3.0 | 3.0 | 0.00 | 0.07 | 0.00 | 6 | 1003.7 |
| 20260505181019 | 53 | 201 | 3.0 | 6.0 | 0.00 | 0.07 | 0.00 | 7 | 1003.6 |
| 20260505180018 | 53 | 243 | 2.0 | 3.0 | 0.00 | 0.07 | 0.00 | 7 | 1003.6 |
| 20260505175019 | 53 | 271 | 5.0 | 8.0 | 0.00 | 0.07 | 0.00 | 7 | 1003.4 |
| 20260505174018 | 53 | 215 | 1.0 | 3.0 | 0.00 | 0.07 | 0.00 | 7 | 1003.2 |
| 20260505173018 | 52 | 261 | 3.0 | 3.0 | 0.00 | 0.07 | 0.00 | 7 | 1003.2 |
| 20260505172018 | 52 | 259 | 5.0 | 6.0 | 0.00 | 0.07 | 0.00 | 7 | 1003.2 |
| 20260505171019 | 52 | 249 | 4.0 | 7.0 | 0.00 | 0.07 | 0.00 | 7 | 1003.2 |
| 20260505170017 | 52 | 259 | 3.0 | 5.0 | 0.00 | 0.07 | 0.00 | 7 | 1003.2 |
| 20260505165019 | 52 | 298 | 3.0 | 5.0 | 0.00 | 0.07 | 0.00 | 7 | 1003.4 |
| 20260505164019 | 52 | 292 | 2.0 | 5.0 | 0.00 | 0.07 | 0.00 | 7 | 1003.6 |
| 20260505163019 | 53 | 259 | 7.0 | 8.0 | 0.00 | 0.07 | 0.00 | 7 | 1003.6 |
| 20260505162018 | 53 | 268 | 6.0 | 6.0 | 0.00 | 0.07 | 0.00 | 7 | 1003.7 |
| 20260505161019 | 55 | 286 | 6.0 | 6.0 | 0.00 | 0.07 | 0.00 | 6 | 1003.4 |
| 20260505153021 | 57 | 324 | 5.0 | 6.0 | 0.00 | 0.07 | 0.00 | 6 | 1002.4 |
| 20260505152019 | 57 | 288 | 6.0 | 6.0 | 0.00 | 0.07 | 0.00 | 5 | 1002.4 |
| 20260505151018 | 58 | 267 | 6.0 | 8.0 | 0.00 | 0.07 | 0.00 | 5 | 1001.8 |